Location: Unspecified
(58.7730°N, 5.8460°E)
Time: 07:23:55
(UTC+01:00)

CZ-3 Stage 3 - Visible Passes

Search period start: 22 December 2014 00:00
Search period end: 01 January 2015 00:00
Orbit: 433 x 34798 km, 31.0° (Epoch: 20 December)

Date Brightness Start Highest point End Pass type
(mag) Time Alt. Az. Time Alt. Az. Time Alt. Az.
22 Dec 6.6 05:21:57 23° WSW 05:21:57 23° WSW 05:33:51 10° SSW visible
22 Dec 7.0 18:11:37 10° SSE 01:55:28 32° SSE 02:03:48 10° SE visible
23 Dec 7.7 16:26:56 10° ESE 21:19:43 40° SE 21:30:40 40° SE visible
24 Dec 9.2 16:33:45 10° E 17:36:34 13° E 18:05:20 12° E visible
24 Dec 6.6 22:32:19 10° SW 05:19:35 21° SW 05:28:47 10° SSW visible
25 Dec 6.9 18:01:48 10° S 01:53:11 27° SSE 01:59:07 10° SE visible
26 Dec 8.9 16:12:06 10° ESE 21:14:08 41° SE 21:30:50 40° SE visible
27 Dec 9.1 16:14:17 10° E 17:30:22 15° E 18:05:22 12° E visible
27 Dec 6.6 22:24:37 10° SW 05:17:11 19° SW 05:23:40 10° SSW visible
28 Dec 6.9 17:52:18 10° S 01:50:44 21° SE 01:54:25 10° SE visible
29 Dec 8.8 15:57:27 10° ESE 21:08:31 42° SE 21:30:37 41° SE visible
30 Dec 9.0 15:55:43 10° E 17:24:10 16° E 18:05:00 12° E visible
30 Dec 6.7 22:17:11 10° SW 05:14:38 16° SW 05:18:31 10° SSW visible
31 Dec 9.8 17:43:08 10° S 00:00:00 40° SW 00:00:00 40° SW visible
